Location: Newark
(60.6561°N, 46.5772°E)
Time: 13:41:24
(UTC+00:00)

Tiros 1 despin weight - Pass Details

Date: 28 October 2019
Orbit: 594 x 642 km, 48.2° (Epoch: 18 November)

Event Time Altitude Azimuth Distance (km) Brightness Sun altitude
Rises 23:30:33 0° 257° (WSW) 2,937 - -33.2°
Reaches altitude 10° 23:35:06 10° 217° (SW) 2,032 - -32.7°
Maximum altitude 23:35:49 10° 208° (SSW) 2,011 - -32.7°
Drops below altitude 10° 23:36:32 10° 199° (SSW) 2,032 - -32.6°
Sets 23:41:05 0° 158° (SSE) 2,939 - -32.1°
